Location: Delettes
(50.6178°N, 2.2123°E)
Time: 18:20:00
(UTC+00:00)

Cosmos 1898 Rocket - Pass Details

Date: 27 February 2020
Orbit: 754 x 783 km, 74.0° (Epoch: 31 March)

Event Time Altitude Azimuth Distance (km) Brightness Sun altitude
Rises 18:56:40 0° 333° (NNW) 3,220 7.2 -14.8°
Reaches altitude 10° 18:59:03 10° 330° (NNW) 2,291 6.4 -15.2°
Maximum altitude 19:04:10 62° 251° (WSW) 849 4.0 -16.0°
Drops below altitude 10° 19:09:16 10° 171° (S) 2,283 5.8 -16.8°
Sets 19:11:38 0° 168° (SSE) 3,208 6.5 -17.1°
